TERRESTAR-1

Last updated on Sun Nov 16 2025 00:03:41 GMT+0000 (Coordinated Universal Time)

1 35496U 09035A 25319.44305537 -.00000050 00000+0 00000+0 0 9999 2 35496 5.0072 48.7871 0002658 185.8961 228.6173 1.00274722 59993
UTC large
Height (km)
Speed (km/s)
/
Latitude / Longitude
Inclination (degrees)
Orbital Period (minutes)
Azimuth
Elevation
Range (km)
Doppler Factor

Next 0 passes for location: London (51.5072 / 0.1276)

Sorry there are no passes over London.